Simultaneous Nadir Overpasses (SNOs) Predictions

Prediction of SNOs between FY3D and NOAA-19 Satellite Orbit:

Table of predicted SNOs for the next 14.0 days since TLE Epoch: 5/19/2024
Index Date (FY3D) Time (FY3D) Lat,Lon (FY3D) SZA (FY3D ) Date (NOAA-19) Time (NOAA-19) Lat,Lon (NOAA-19) SZA (NOAA-19 ) Distance(km) Time Diff (sec)
1 06/01/2024 11:53:59 -76.06,-179.83 126.18 06/01/2024 11:52:47 -76.08,-179.82 126.16 1.45 72
2 06/01/2024 12:44:45 76.09, -12.62 53.85 06/01/2024 12:43:41 76.05, -12.62 53.82 4.13 64
3 06/01/2024 13:35:30 -76.07, 154.75 126.17 06/01/2024 13:34:45 -76.07, 154.69 126.17 1.70 45
4 06/01/2024 14:26:16 76.10, -38.04 53.86 06/01/2024 14:25:38 76.10, -37.95 53.85 2.46 38
5 06/01/2024 15:17:01 -76.09, 129.33 126.17 06/01/2024 15:16:42 -76.12, 129.36 126.14 3.43 19
6 06/01/2024 16:07:47 76.12, -63.46 53.86 06/01/2024 16:07:36 76.10, -63.44 53.84 2.21 11
7 06/01/2024 16:58:32 -76.10, 103.91 126.17 06/01/2024 16:58:40 -76.12, 103.86 126.15 2.16 8
8 06/01/2024 17:49:18 76.13, -88.88 53.86 06/01/2024 17:49:33 76.14, -88.77 53.88 3.33 15
9 06/01/2024 18:40:03 -76.11, 78.49 126.16 06/01/2024 18:40:38 -76.12, 78.37 126.16 3.04 35
10 06/01/2024 19:30:49 76.14,-114.31 53.87 06/01/2024 19:31:31 76.14,-114.26 53.87 1.25 42
11 06/01/2024 20:21:34 -76.13, 53.06 126.16 06/01/2024 20:22:35 -76.16, 53.04 126.12 3.77 61
12 06/01/2024 21:12:20 76.16,-139.73 53.87 06/01/2024 21:13:29 76.14,-139.75 53.86 1.77 69



Historial Predications of SNOs between FY3D and NOAA-19
